sat.trackr.live / text

‹ back to catalog

COSMOS 2603

NORAD 67677 · 2026-023D

PAYLOAD ACTIVE UNKNOWN

§ Identity

Operator
Country
CIS
Launch date
2026-02-05
Launch site
PLMSC
Launch vehicle
Mass (kg)
RCS (m²)

External: N2YO · Heavens-Above · Gunter

§ Orbital elements

Epoch: 2026-09-19T09:07:18.773760Z

Period
94.34 min
Inclination
96.6322°
Eccentricity
0.0017515
Mean motion
15.26368478 rev/d
Perigee alt
474.7 km
Apogee alt
498.7 km
Semi-major
6,864.8 km
B*
8.5114e-5
RAAN
313.2817°
Arg perigee
149.5582°
Mean anomaly
210.6680°
Rev number
3,436

§ Raw data

COSMOS 26031 67677U 26023D   26262.38007840  .00002161  00000+0  85114-4 0  99962 67677  96.6322 313.2817 0017515 149.5582 210.6680 15.26368478 34360

JSON: /api/v1/satellites/67677 · /tle

For live sub-satellite position, see the globe view (requires WebGL).

§ Visibility from observer

Set your observer location to see the next 7 days of passes ≥ 10°. The values pass through the URL so the page stays shareable.

No JS? Fill the form by hand. The geolocation button needs JavaScript.